Pagrindinis puslapis
METAR-TAF:

METAR-TAF

Oro uostai :

Jask, Iranas

platuma: 26-38N, ilguma: 057-46E, Aukštis: 3 m

Dabartinis oras

Ataskaita buvo paskelbta 23 minutes, ne 09:00 UTC
Vėjas 4 kt iš Pietų
Temperatūra 28°C
Drėgmė 74%
Slėgis 1015 hPa
Matomumas: 7000 m

METAR: OIZJ 070900Z 18004KT 7000 NSC 28/23 Q1015

Laikas: 12:53 (09:23 UTC)


TAF: trūkstamas

Orai ataskaitas ir orų prognozės (METAR, TAF).

turimą stotys yra geltonos ir raudonos taškus žemėlapyje.

Perkelti pele per norėdami pamatyti stoties vardą.

Tada spustelėkite, norėdami matyti oro stebėjimo ir prognozės.

Norėdami pakeisti žemėlapį: spustelėkite ant žalios mygtukų su juodo kryžiaus žemyn,; žalią mygtuką su brūkšneliu, jei norite nutolinti; arba žalių rodyklių gretimoms žemėlapius.


METAR-TAF: